Location: Asheville, NC
(35.6000°N, 82.5500°W)
Time: 19:45:38
(UTC-04:00)

Vanguard 3 - Pass Details

Date: 17 March 2018
Orbit: 508 x 3264 km, 33.3° (Epoch: 23 June)

Event Time Altitude Azimuth Distance (km) Brightness Sun altitude
Rises 13:44:39 0° 283° (WNW) 6,908 11.8 53.2°
Reaches altitude 10° 13:49:51 10° 280° (W) 5,598 11.5 53.1°
Maximum altitude 14:04:52 56° 208° (SSW) 2,204 11.7 52.7°
Drops below altitude 10° 14:13:27 10° 133° (SE) 3,327 10.7 52.4°
Sets 14:15:47 0° 128° (SE) 4,014 10.9 52.2°
